Coetivy Airport

Jump to: basic info | weather | runways | comments

Related pages: nearby airports | nearby navaids | notams | map

Basic information (top)

Codes: FSSC
Location: lon -7.134570, lat 56.278198, elev 10 ft / 3 m msl
Status: small_airport

Weather (top)

Current conditions for Diego Garcia Naval Support Facility 961nm (1,780km) E (rec'd 2014/10/25 10:55Z):

FJDG 251055Z 13011KT 9999 SCT020 SCT050 BKN250 29/26 A2977 RMK SLP078 T02890264

Airport forecast for Diego Garcia Naval Support Facility 961nm (1,780km) E (rec'd 2014/10/07 20:39Z):

TAF TAF FJDG 072000Z 0720/0902 15012G16KT 9999 VCSH FEW020 SCT050 BKN220 QNH2979INS TX29/0806Z TN25/0821Z

Runways (top)

13/31: 4,593 x 79 ft (1,400 x 24 m) — paved — not lighted — threshold 13 displaced 656 ft (200 m) — threshold 31 displaced 656 ft (200 m)

Latest comments (top)

No comments yet for Coetivy Airport

More... (top)

See also NOTAMs and nearby airports and navaids, or visit the Coetivy Airport page at the main OurAirports website..